EA3GYL La Torregassa ES current weather conditions

sailwx.info

Wind from 032

Air temperature 22.8° C
Dewpoint 21.6° C

Last reported at 2015-Aug-28 21:50 UTC.
Time now 2015-Aug-28 22:20 UTC

Location: N 41°17' E 001°31'.
View on Google Maps.

See reports from other nearby stations

  
Tides and Currents Weather Stations Pressure Air Temp Water Temp Dewpoint Dewpoint Depression Visibility Wind Speed Wind Dir Waves Ship Positions
date/time (UTC)wind fromknots sea level pressurealtimeterstation pressurevisibilityair tempwater tempwave heightnotes
2015-Aug-28 21:50 032 22.8
2015-Aug-28 21:40 22.8
2015-Aug-28 21:30 22.8
2015-Aug-28 21:20 22.8
2015-Aug-28 21:10 22.8
2015-Aug-28 21:00 22.8
2015-Aug-28 20:50 22.8
2015-Aug-28 19:20 24.4
2015-Aug-28 19:10 24.4
2015-Aug-28 19:00 24.4
2015-Aug-28 18:50 101 24.4
2015-Aug-28 18:40 110 0 gusting 1 25.0
2015-Aug-28 18:30 112 0 gusting 2 25.6
2015-Aug-28 18:20 113 1 gusting 3 25.6
2015-Aug-28 18:10 107 0 gusting 3 26.1
2015-Aug-28 18:00 115 1 gusting 3 26.7
2015-Aug-28 17:50 100 1 gusting 4 26.7
2015-Aug-28 17:40 113 2 gusting 5 26.7
2015-Aug-28 17:30 103 2 gusting 6 26.7
2015-Aug-28 17:20 116 2 gusting 3 27.2
2015-Aug-28 16:20 115 5 gusting 8 27.8
2015-Aug-28 16:10 118 5 gusting 9 27.8
2015-Aug-28 16:00 104 5 gusting 9 28.3
2015-Aug-28 15:50 107 3 gusting 10 28.3
2015-Aug-28 15:40 099 3 gusting 5 28.3
2015-Aug-28 14:50 103 5 gusting 10 28.3
2015-Aug-28 14:40 104 5 gusting 9 28.3
2015-Aug-28 14:30 107 4 gusting 8 28.3
2015-Aug-28 14:20 110 4 gusting 9 28.3
2015-Aug-28 14:10 114 4 gusting 8 28.9
2015-Aug-28 13:50 115 5 gusting 9 28.9
2015-Aug-28 13:40 113 5 gusting 8 28.9
2015-Aug-28 13:30 107 6 gusting 13 28.3
2015-Aug-28 13:20 102 6 gusting 12 28.3
2015-Aug-28 13:10 117 5 gusting 10 28.9
2015-Aug-28 13:00 104 4 gusting 10 28.9
2015-Aug-28 12:40 116 6 gusting 10 28.9
2015-Aug-28 12:30 104 6 gusting 12 28.9
2015-Aug-28 12:20 106 6 gusting 12 28.3
2015-Aug-28 12:10 109 5 gusting 10 28.9
2015-Aug-28 12:00 114 5 gusting 10 28.9
2015-Aug-28 11:50 116 6 gusting 12 28.3
2015-Aug-28 11:40 099 6 gusting 13 28.3
2015-Aug-28 11:30 114 5 gusting 9 28.9
2015-Aug-28 11:20 106 5 gusting 9 28.9
2015-Aug-28 11:10 104 5 gusting 9 28.3
2015-Aug-28 11:00 105 5 gusting 9 28.3
2015-Aug-28 10:50 104 5 gusting 10 28.3
2015-Aug-28 10:40 122 4 gusting 7 28.3
2015-Aug-28 10:30 113 4 gusting 7 28.9
2015-Aug-28 10:20 125 3 gusting 9 28.3
2015-Aug-28 10:10 116 2 gusting 8 28.3
2015-Aug-28 10:00 124 3 gusting 6 28.9
2015-Aug-28 09:50 111 3 gusting 6 27.8
2015-Aug-28 09:40 081 2 gusting 6 27.8
2015-Aug-28 09:30 132 2 gusting 5 27.8
2015-Aug-28 09:20 126 2 gusting 5 27.2
2015-Aug-28 09:10 094 2 gusting 6 26.7
2015-Aug-28 09:00 100 1 gusting 7 27.2
2015-Aug-28 08:50 092 1 gusting 6 26.7
2015-Aug-28 08:40 090 2 gusting 6 26.1
2015-Aug-28 08:30 098 2 gusting 4 26.1
2015-Aug-28 08:20 089 1 gusting 6 26.1
2015-Aug-28 08:10 155 0 gusting 2 26.7
2015-Aug-28 08:00 202 0 gusting 1 26.1
2015-Aug-27 22:30 21.7
2015-Aug-27 22:20 22.2
2015-Aug-27 22:10 22.2
2015-Aug-27 22:00 203 0 gusting 1 22.2
2015-Aug-27 21:50 209 0 gusting 1 22.2
2015-Aug-27 21:40 211 0 gusting 1 22.2
2015-Aug-27 21:30 204 0 gusting 1 22.2
2015-Aug-27 21:20 203 0 gusting 2 22.2
2015-Aug-27 21:10 210 0 gusting 1 22.8
2015-Aug-27 21:00 220 0 gusting 2 22.8
2015-Aug-27 20:50 204 22.8
2015-Aug-27 20:40 23.3
2015-Aug-27 19:50 213 0 gusting 2 23.3
2015-Aug-27 19:40 203 0 gusting 2 23.3
2015-Aug-27 19:30 199 1 gusting 3 23.9
2015-Aug-27 19:20 199 1 gusting 4 23.9
2015-Aug-27 19:10 203 2 gusting 6 23.9
2015-Aug-27 19:00 205 3 gusting 6 24.4
2015-Aug-27 18:50 202 3 gusting 6 24.4
2015-Aug-27 18:40 201 3 gusting 8 24.4
2015-Aug-27 18:30 200 3 gusting 7 25.0
2015-Aug-27 18:20 205 3 gusting 6 25.0
2015-Aug-27 10:40 142 5 gusting 10 28.3
2015-Aug-27 10:30 162 5 gusting 12 28.3
2015-Aug-27 10:20 141 5 gusting 13 28.9
2015-Aug-27 10:10 128 5 gusting 10 28.3
2015-Aug-27 10:00 148 5 gusting 11 28.3
2015-Aug-27 09:50 144 5 gusting 9 28.3
2015-Aug-27 09:40 134 4 gusting 8 28.3
2015-Aug-27 09:30 143 5 gusting 10 28.3
2015-Aug-27 09:20 138 5 gusting 9 28.3
2015-Aug-27 09:10 141 4 gusting 10 27.8
2015-Aug-27 09:00 197 2 gusting 10 27.2
2015-Aug-27 08:50 171 1 gusting 4 27.2
2015-Aug-27 08:40 150 0 gusting 5 26.7
2015-Aug-27 08:30 225 0 gusting 3 26.1
2015-Aug-26 22:30 249 0 gusting 2 22.2
2015-Aug-26 22:20 246 0 gusting 1 22.2
2015-Aug-26 22:10 244 0 gusting 2 22.2
2015-Aug-26 22:00 239 22.2